Weather History for KEGE - September, 2012

Change the Weather History Date:

Sunday, September 23, 2012

  Actual Average Record
Temperature  
Mean Temperature 57 °F -  
Max Temperature 77 °F 74 °F 89 °F (1966)
Min Temperature 37 °F 32 °F 20 °F (1956)
Degree Days  
Heating Degree Days 8    
Growing Degree Days 7 (Base 50)    
Moisture  
Dew Point 27 °F    
Average Humidity 38    
Maximum Humidity 60    
Minimum Humidity 16    
Precipitation  
Precipitation 0.00 in - - ()
Sea Level Pressure  
Sea Level Pressure 30.29 in    
Wind  
Wind Speed 3 mph (ESE)    
Max Wind Speed 22 mph    
Max Gust Speed 31 mph    
Visibility 10 miles    
Events      
Averages and records for this station are not official NWS values.
T = Trace of Precipitation, MM = Missing Value Source: NWS Daily Summary

Daily Weather History Graph

Daily Weather History Graph

Search for Another Location

Airport or City:

Trip Planner

Search our weather history database for the weather conditions in past years. The results will help you decide how hot, cold, wet, or windy it might be!

Date:

Astronomy

Sep. 23, 2012 Rise Set
Actual Time 6:56 AM MDT 7:02 PM MDT
Civil Twilight 6:29 AM MDT 7:29 PM MDT
Nautical Twilight 5:58 AM MDT 8:00 PM MDT
Astronomical Twilight 5:26 AM MDT 8:32 PM MDT
Moon 3:04 PM MDT (9/23) 12:12 AM MDT (9/23)
Length of Visible Light 12h 59m
Length of Day
12h 05m
First Quarter, 60% of the Moon is Illuminated
Sep 23
First Quarter
Sep 29
Full
Oct 8
Last Quarter
Oct 15
New
Oct 21
First Quarter

Hourly Weather History & Observations

Time (MDT) Temp. Windchill Dew Point Humidity Pressure Visibility Wind Dir Wind Speed Gust Speed Precip Events Conditions
12:35 AM 48.2 °F - 23.0 °F 37% 30.29 in 10.0 mi ESE 3.5 mph - N/A   Clear
12:55 AM 48.2 °F - 23.0 °F 37% 30.30 in 10.0 mi Calm Calm - N/A   Clear
1:15 AM 46.4 °F - 21.2 °F 37% 30.30 in 10.0 mi Calm Calm - N/A   Clear
1:35 AM 46.4 °F - 23.0 °F 40% 30.30 in 10.0 mi Calm Calm - N/A   Clear
1:55 AM 44.6 °F - 23.0 °F 43% 30.31 in 10.0 mi Calm Calm - N/A   Clear
2:15 AM 44.6 °F - 21.2 °F 39% 30.31 in 10.0 mi Calm Calm - N/A   Clear
2:35 AM 44.6 °F - 23.0 °F 43% 30.31 in 10.0 mi Calm Calm - N/A   Clear
2:55 AM 44.6 °F 43.1 °F 21.2 °F 39% 30.31 in 10.0 mi East 3.5 mph - N/A   Clear
3:15 AM 42.8 °F 38.6 °F 26.6 °F 53% 30.31 in 10.0 mi East 6.9 mph - N/A   Clear
3:35 AM 42.8 °F 40.1 °F 24.8 °F 49% 30.32 in 10.0 mi ESE 4.6 mph - N/A   Clear
3:55 AM 42.8 °F 41.1 °F 23.0 °F 46% 30.31 in 10.0 mi ESE 3.5 mph - N/A   Clear
4:35 AM 42.8 °F - 23.0 °F 46% 30.32 in 10.0 mi Calm Calm - N/A   Clear
4:55 AM 39.2 °F 37.0 °F 23.0 °F 52% 30.32 in 10.0 mi ESE 3.5 mph - N/A   Clear
5:15 AM 39.2 °F 35.9 °F 24.8 °F 56% 30.33 in 10.0 mi ESE 4.6 mph - N/A   Clear
5:35 AM 39.2 °F - 24.8 °F 56% 30.33 in 10.0 mi Calm Calm - N/A   Clear
5:55 AM 39.2 °F - 23.0 °F 52% 30.33 in 10.0 mi Calm Calm - N/A   Clear
6:15 AM 37.4 °F - 24.8 °F 60% 30.34 in 10.0 mi Calm Calm - N/A   Clear
6:35 AM 37.4 °F - 24.8 °F 60% 30.35 in 10.0 mi Calm Calm - N/A   Clear
6:50 AM 37.4 °F - 21.2 °F 52% 30.35 in 10.0 mi Calm Calm - N/A   Partly Cloudy
7:50 AM 37.4 °F - 24.8 °F 60% 30.37 in 10.0 mi Calm Calm - N/A   Scattered Clouds
8:50 AM 44.6 °F - 24.8 °F 46% 30.38 in 10.0 mi Calm Calm - N/A   Mostly Cloudy
9:50 AM 48.2 °F - 23.0 °F 37% 30.37 in 10.0 mi Calm Calm - N/A   Mostly Cloudy
10:50 AM 55.4 °F - 23.0 °F 29% 30.34 in 10.0 mi Calm Calm - N/A   Mostly Cloudy
11:50 AM 62.6 °F - 23.0 °F 22% 30.32 in 10.0 mi Calm Calm - N/A   Mostly Cloudy
12:50 PM 69.8 °F - 21.2 °F 16% 30.28 in 10.0 mi Calm Calm - N/A   Mostly Cloudy
1:50 PM 75.2 °F - 26.6 °F 17% 30.26 in 10.0 mi SSW 21.9 mph 31.1 mph N/A   Mostly Cloudy
2:50 PM 75.2 °F - 30.2 °F 19% 30.25 in 10.0 mi SSW 19.6 mph 26.5 mph N/A   Mostly Cloudy
3:50 PM 77.0 °F - 28.4 °F 17% 30.22 in 10.0 mi WSW 18.4 mph - N/A   Mostly Cloudy
4:51 PM 75.2 °F - 30.2 °F 19% 30.23 in 10.0 mi SW 21.9 mph 25.3 mph N/A   Mostly Cloudy
5:50 PM 73.4 °F - 32.0 °F 22% 30.24 in 10.0 mi SSW 16.1 mph 20.7 mph N/A   Mostly Cloudy
6:49 PM 71.6 °F - 33.8 °F 25% 30.24 in 10.0 mi SW 6.9 mph - N/A   Mostly Cloudy
7:35 PM 68.0 °F - 32.0 °F 26% 30.24 in 10.0 mi Calm Calm - N/A   Clear
7:55 PM 66.2 °F - 30.2 °F 26% 30.24 in 10.0 mi Calm Calm - N/A   Clear
8:15 PM 66.2 °F - 30.2 °F 26% 30.25 in 10.0 mi Calm Calm - N/A   Scattered Clouds
8:35 PM 64.4 °F - 32.0 °F 30% 30.25 in 10.0 mi Calm Calm - N/A   Partly Cloudy
8:55 PM 62.6 °F - 33.8 °F 34% 30.26 in 10.0 mi Calm Calm - N/A   Partly Cloudy
9:15 PM 62.6 °F - 32.0 °F 32% 30.26 in 10.0 mi East 4.6 mph - N/A   Scattered Clouds
9:35 PM 60.8 °F - 33.8 °F 36% 30.26 in 10.0 mi East 6.9 mph - N/A   Mostly Cloudy
9:55 PM 60.8 °F - 33.8 °F 36% 30.25 in 10.0 mi East 9.2 mph - N/A   Scattered Clouds
10:35 PM 60.8 °F - 35.6 °F 39% 30.25 in 10.0 mi ENE 6.9 mph - N/A   Partly Cloudy
10:55 PM 60.8 °F - 33.8 °F 36% 30.25 in 10.0 mi East 4.6 mph - N/A   Partly Cloudy
11:15 PM 60.8 °F - 35.6 °F 39% 30.24 in 10.0 mi East 9.2 mph - N/A   Clear
11:35 PM 60.8 °F - 35.6 °F 39% 30.24 in 10.0 mi North 8.1 mph - N/A   Clear
11:55 PM 60.8 °F - 35.6 °F 39% 30.23 in 10.0 mi ENE 8.1 mph - N/A   Partly Cloudy